"2007/01/01", 7.4, 7.8, 6.9
"2007/01/02", 7.6, 7.8, 7.3
"2007/01/03", 7.5, 7.7, 7.4
"2007/01/04", 7.3, 7.5, 7.1
"2007/01/05", 7.1, 7.3, 6.8
"2007/01/06", 6.9, 7.0, 6.6
"2007/01/07", 6.8, 7.2, 6.4
"2007/01/08", 6.3, 6.8, 5.3
"2007/01/09", 5.9, 6.3, 5.6
"2007/01/10", 5.7, 6.1, 5.2
"2007/01/11", 5.8, 6.5, 5.2
"2007/01/12", 6.0, 6.3, 5.7
"2007/01/13", 5.9, 6.7, 5.6
"2007/01/14", 5.9, 6.7, 5.2
"2007/01/15", 6.0, 6.5, 5.3
"2007/01/16", 5.9, 6.3, 5.5
"2007/01/17", 6.1, 6.2, 5.9
"2007/01/18", 6.5, 6.9, 6.1
"2007/01/19", 6.5, 7.5, 6.0
"2007/01/20", 6.0, 6.3, 5.8
"2007/01/21", 6.0, 6.2, 5.7
"2007/01/22", 6.4, 6.9, 6.0
"2007/01/23", 6.3, 6.7, 6.0
"2007/01/24", 6.5, 7.0, 6.2
"2007/01/25", 6.6, 7.4, 5.9
"2007/01/26", 6.7, 7.5, 6.0
"2007/01/27", 7.1, 7.7, 6.6
"2007/01/28", 7.2, 7.6, 6.9
"2007/01/29", 6.8, 7.1, 6.3
"2007/01/30", 6.6, 8.4, 5.9
"2007/01/31", 7.1, 8.2, 6.6
"2007/02/01", 7.6, 8.2, 6.9
"2007/02/02", 6.9, 7.5, 6.3
"2007/02/03", 6.4, 6.9, 5.6
"2007/02/04", 6.3, 6.6, 5.7
"2007/02/05", 6.3, 6.9, 5.6
"2007/02/06", 7.3, 8.6, 6.5
"2007/02/07", 7.7, 8.7, 7.1
"2007/02/08", 7.6, 8.6, 6.6
"2007/02/09", 7.8, 8.6, 7.2
"2007/02/10", 8.5, 9.1, 7.9
"2007/02/11", 8.1, 9.5, 7.3
"2007/02/12", 7.8, 9.2, 6.4
"2007/02/13", 8.0, 8.8, 7.3
"2007/02/14", 7.9, 9.1, 7.2
"2007/02/15", 8.4, 9.4, 7.8
"2007/02/16", 7.6, 8.3, 7.0
"2007/02/17", 7.5, 8.0, 6.8
"2007/02/18", 7.6, 7.7, 7.4
"2007/02/19", 7.6, 9.3, 6.8
"2007/02/20", 7.3, 7.6, 7.2
"2007/02/21", 7.9, 9.0, 7.1
"2007/02/22", 8.0, 8.9, 7.3
"2007/02/23", 8.4, 8.7, 8.0
"2007/02/24", 7.9, 8.4, 7.2
"2007/02/25", 6.9, 7.3, 6.4
"2007/02/26", 6.9, 8.0, 6.2
"2007/02/27", 7.4, 8.7, 6.8
"2007/02/28", 7.7, 8.5, 7.3
"2007/03/01", 7.8, 9.0, 6.8
"2007/03/02", 8.1, 9.4, 7.3
"2007/03/03", 8.4, 9.1, 7.8
"2007/03/04", 8.8,10.4, 8.0
"2007/03/05", 9.8,11.5, 8.6
"2007/03/06",10.4,11.3, 9.4
"2007/03/07", 9.7,10.6, 8.7
"2007/03/08", 9.7,10.7, 9.1
"2007/03/09", 9.1, 9.4, 8.8
"2007/03/10", 9.1, 9.7, 8.6
"2007/03/11", 9.5,10.0, 8.7
"2007/03/12", 8.9, 9.8, 8.3
"2007/03/13", 8.5, 9.7, 7.6
"2007/03/14", 8.0, 9.0, 6.6
"2007/03/15", 7.8, 8.5, 6.4
"2007/03/16", 8.2, 8.8, 7.6
"2007/03/17", 8.1, 8.7, 7.8
"2007/03/18", 8.0, 8.7, 7.4
"2007/03/19", 8.2, 9.0, 7.2
"2007/03/20", 8.7, 9.8, 7.7
"2007/03/21", 8.8, 9.9, 8.3
"2007/03/22", 9.2,10.3, 8.4
"2007/03/23", 9.8,11.6, 8.9
"2007/03/24",10.1,11.6, 9.3
"2007/03/25",11.3,11.7,11.0
"2007/03/26",11.2,11.9,10.7
"2007/03/27",10.9,11.5,10.6
"2007/03/28",11.7,13.2,10.8
"2007/03/29",12.6,14.3,11.7
"2007/03/30",12.6,14.0,12.1
"2007/03/31",12.4,12.8,12.2
"2007/04/01",13.3,15.1,12.3
"2007/04/02",13.1,13.3,12.8
"2007/04/03",12.5,12.9,12.0
"2007/04/04",11.9,12.3,11.6
"2007/04/05",12.4,14.0,10.8
"2007/04/06",12.3,12.6,12.0
"2007/04/07",13.1,14.5,11.9
"2007/04/08",13.9,15.7,12.7
"2007/04/09",13.8,14.5,13.4
"2007/04/10",14.0,15.1,13.2
"2007/04/11",13.5,14.3,12.9
"2007/04/12",14.3,16.1,13.1
"2007/04/13",14.8,16.0,14.0
"2007/04/14",15.4,16.6,14.6
"2007/04/15",15.2,15.8,14.7
"2007/04/16",14.5,14.9,13.7
"2007/04/17",13.3,13.7,12.9
"2007/04/18",12.7,13.0,12.3
"2007/04/19",12.1,12.3,11.6
"2007/04/20",12.6,14.0,11.6
"2007/04/21",13.4,14.6,12.5
"2007/04/22",14.9,16.2,13.7
"2007/04/23",14.4,15.0,13.8
"2007/04/24",14.3,15.0,13.6
"2007/04/25",14.4,14.8,14.1
"2007/04/26",14.9,15.6,14.4
"2007/04/27",14.5,15.5,13.8
"2007/04/28",15.3,16.5,14.1
"2007/04/29",15.8,17.9,14.9
"2007/04/30",15.9,18.1,14.6
"2007/05/01",15.5,15.9,15.2
"2007/05/02",16.3,17.4,15.6
"2007/05/03",17.6,19.4,16.4
"2007/05/04",17.7,19.2,16.9
"2007/05/05",18.1,18.8,17.6
"2007/05/06",18.0,18.4,17.4
"2007/05/07",18.3,20.1,17.2
"2007/05/08",18.9,19.9,18.2
"2007/05/09",19.7,20.7,18.8
"2007/05/10",20.1,21.0,19.3
"2007/05/11",18.8,19.4,17.8
"2007/05/12",19.3,20.8,17.7
"2007/05/13",19.5,19.8,19.1
"2007/05/14",19.1,19.7,18.6
"2007/05/15",19.4,21.3,18.6
"2007/05/16",19.6,20.4,19.1
"2007/05/17",19.4,19.7,19.1
"2007/05/18",19.3,20.0,18.9
"2007/05/19",19.0,19.3,18.6
"2007/05/20",19.1,20.0,18.3
"2007/05/21",19.4,20.7,18.5
"2007/05/22",19.6,20.9,18.8
"2007/05/23",20.4,23.3,19.5
"2007/05/24",20.3,20.8,19.6
"2007/05/25",20.0,20.2,19.8
"2007/05/26",20.4,21.5,19.6
"2007/05/27",20.7,22.1,20.1
"2007/05/28",19.8,20.4,19.5
"2007/05/29",19.9,21.1,19.1
"2007/05/30",19.6,20.0,19.3
"2007/05/31",20.0,20.9,19.3
"2007/06/01",20.0,20.4,19.6
"2007/06/02",20.8,22.4,19.6
"2007/06/03",21.2,22.4,20.4
"2007/06/04",21.4,22.3,20.8
"2007/06/05",22.1,23.9,21.0
"2007/06/06",22.9,24.8,21.7
"2007/06/07",22.8,23.6,22.3
"2007/06/08",22.5,23.5,21.9
"2007/06/09",22.5,23.1,22.1
"2007/06/10",22.2,22.4,21.9
"2007/06/11",22.4,23.6,21.7
"2007/06/12",23.7,26.7,22.2
"2007/06/13",23.4,24.2,22.9
"2007/06/14",23.5,23.8,23.0
"2007/06/15",23.5,25.0,22.5
"2007/06/16",23.8,24.9,22.7
"2007/06/17",24.2,25.8,23.3
"2007/06/18",23.9,24.8,23.3
"2007/06/19",25.1,28.3,24.0
"2007/06/20",24.9,25.5,24.3
"2007/06/21",25.5,27.6,24.3
"2007/06/22",25.5,25.9,24.9
"2007/06/23",25.9,28.5,24.5
"2007/06/24",25.0,25.7,24.4
"2007/06/25",24.6,25.2,24.2
"2007/06/26",24.6,25.2,24.2
"2007/06/27",25.3,26.6,24.2
"2007/06/28",25.8,27.8,24.8
"2007/06/29",26.0,26.5,25.8
"2007/06/30",25.6,26.0,25.2
"2007/07/01",25.5,26.7,24.9
"2007/07/02",25.2,25.4,25.0
"2007/07/03",25.3,26.1,24.9
"2007/07/04",24.6,25.1,24.2
"2007/07/05",24.4,25.0,24.1
"2007/07/06",25.0,26.3,24.0
"2007/07/07",24.6,25.1,24.3
"2007/07/08",24.5,25.3,24.1
"2007/07/09",24.9,26.2,24.1
"2007/07/10",24.5,24.7,24.3
"2007/07/11",24.5,24.7,24.3
"2007/07/12",24.7,25.6,24.0
"2007/07/13",24.5,24.8,24.2
"2007/07/14",24.0,24.2,23.7
"2007/07/15",23.8,24.0,23.6
"2007/07/16",23.6,24.1,23.2
"2007/07/17",23.3,23.6,23.0
"2007/07/18",22.9,23.1,22.8
"2007/07/19",23.1,23.8,22.6
"2007/07/20",23.8,25.3,22.8
"2007/07/21",23.6,23.8,23.3
"2007/07/22",23.9,24.7,23.4
"2007/07/23",23.9,24.0,23.8
"2007/07/24",24.8,26.6,23.6
"2007/07/25",25.6,27.4,24.3
"2007/07/26",25.9,27.1,24.9
"2007/07/27",26.5,27.4,25.5
"2007/07/28",26.3,27.0,25.8
"2007/07/29",26.6,27.4,25.9
"2007/07/30",25.7,26.2,24.9
"2007/07/31",25.3,26.2,24.5
"2007/08/01",25.8,26.6,25.0
"2007/08/02",26.4,26.8,25.9
"2007/08/03",26.8,27.5,26.1
"2007/08/04",27.0,27.7,26.1
"2007/08/05",27.7,30.6,26.7
"2007/08/06",27.3,29.1,26.7
"2007/08/07",27.4,28.0,26.6
"2007/08/08",28.0,28.6,27.6
"2007/08/09",28.1,28.5,27.6
"2007/08/10",29.2,31.8,27.7
"2007/08/11",29.9,32.4,28.8
"2007/08/12",29.5,30.4,28.8
"2007/08/13",29.5,30.1,29.2
"2007/08/14",29.5,30.0,29.1
"2007/08/15",30.6,32.8,29.0
"2007/08/16",31.6,33.6,30.0
"2007/08/17",31.0,32.0,30.4
"2007/08/18",29.6,30.4,29.2
"2007/08/19",29.4,30.0,28.9
"2007/08/20",30.1,32.7,28.6
"2007/08/21",30.0,31.9,29.5
"2007/08/22",29.7,30.4,29.0
"2007/08/23",29.3,29.7,29.0
"2007/08/24",29.0,29.7,28.6
"2007/08/25",29.4,31.5,28.4
"2007/08/26",29.8,32.2,28.4
"2007/08/27",29.3,29.8,29.0
"2007/08/28",29.1,30.2,28.6
"2007/08/29",28.2,28.7,27.6
"2007/08/30",27.3,27.6,26.7
"2007/08/31",26.6,26.8,26.3
"2007/09/01",25.7,26.4,25.0
"2007/09/02",25.1,25.5,24.9
"2007/09/03",25.9,28.4,24.8
"2007/09/04",26.2,27.0,25.3
"2007/09/05",26.4,27.0,26.0
"2007/09/06",26.4,26.6,26.2
"2007/09/07",25.8,26.2,25.4
"2007/09/08",25.9,26.4,25.4
"2007/09/09",26.5,27.1,26.2
"2007/09/10",26.4,26.6,26.3
"2007/09/11",26.1,26.5,25.9
"2007/09/12",25.4,25.9,24.8
"2007/09/13",25.3,26.2,24.5
"2007/09/14"," *"," *"," *"
"2007/09/15",25.6,25.9,25.3
"2007/09/16",26.2,26.7,25.7
"2007/09/17",26.5,27.1,25.9
"2007/09/18",26.0,26.6,25.4
"2007/09/19",25.5,26.2,25.1
"2007/09/20",26.3,28.8,25.5
"2007/09/21",26.2,26.6,25.9
"2007/09/22",27.0,29.5,25.9
"2007/09/23",25.8,26.8,25.1
"2007/09/24",24.6,25.1,24.2
"2007/09/25",24.8,26.2,23.9
"2007/09/26",24.8,25.3,23.8
"2007/09/27",24.2,24.9,23.6
"2007/09/28",24.4,25.0,23.8
"2007/09/29",23.6,24.2,22.9
"2007/09/30",22.4,23.2,21.9
"2007/10/01",21.9,22.2,21.4
"2007/10/02",21.9,22.3,21.5
"2007/10/03",21.7,22.0,21.6
"2007/10/04",22.3,23.8,21.4
"2007/10/05",22.3,23.2,21.8
"2007/10/06",21.8,22.4,21.5
"2007/10/07",21.8,23.2,21.2
"2007/10/08",21.5,21.9,21.2
"2007/10/09",21.1,21.5,20.7
"2007/10/10",21.2,22.7,20.5
"2007/10/11",21.3,22.9,20.6
"2007/10/12",21.4,22.9,20.8
"2007/10/13",20.6,21.0,20.3
"2007/10/14",20.1,20.3,19.7
"2007/10/15",20.0,20.4,19.5
"2007/10/16",19.1,19.6,18.6
"2007/10/17",18.7,18.9,18.4
"2007/10/18",18.6,18.9,18.3
"2007/10/19"," *"," *"," *"
"2007/10/20",18.4,19.6,17.2
"2007/10/21",18.5,19.3,17.8
"2007/10/22",18.1,18.6,17.7
"2007/10/23",18.1,19.6,17.5
"2007/10/24",18.0,18.6,17.6
"2007/10/25",18.1,19.1,17.1
"2007/10/26",18.3,18.8,18.1
"2007/10/27",18.0,18.4,17.2
"2007/10/28",17.8,19.6,16.2
"2007/10/29",17.7,18.0,17.5
"2007/10/30",17.8,18.3,17.5
"2007/10/31",17.9,18.3,17.5
"2007/11/01",17.8,18.3,17.6
"2007/11/02",17.6,17.8,17.1
"2007/11/03",16.8,17.2,16.4
"2007/11/04",16.9,17.5,16.2
"2007/11/05",17.1,17.7,16.5
"2007/11/06",16.8,16.9,16.7
"2007/11/07",16.7,17.4,16.4
"2007/11/08",16.8,17.8,15.9
"2007/11/09",16.3,16.5,16.1
"2007/11/10",15.9,16.1,15.6
"2007/11/11",15.6,15.8,15.3
"2007/11/12",15.4,15.8,15.1
"2007/11/13",15.2,16.8,14.2
"2007/11/14",15.5,16.4,15.0
"2007/11/15",15.4,16.5,15.0
"2007/11/16",15.0,15.4,14.6
"2007/11/17",14.1,14.6,13.8
"2007/11/18",13.7,14.1,13.3
"2007/11/19",12.7,13.2,11.5
"2007/11/20",12.5,12.6,12.2
"2007/11/21",12.4,13.2,12.0
"2007/11/22",11.3,12.2, 9.6
"2007/11/23", 9.8,10.4, 7.8
"2007/11/24",10.4,11.3, 9.1
"2007/11/25",11.3,12.8,10.7
"2007/11/26",11.1,11.8,10.6
"2007/11/27",10.9,11.1,10.8
"2007/11/28",10.8,10.9,10.5
"2007/11/29",10.3,10.5, 9.9
"2007/11/30",10.0,10.1, 9.9
"2007/12/01",10.3,10.9, 9.8
"2007/12/02",10.6,11.1,10.1
"2007/12/03",10.4,10.6,10.2
"2007/12/04",10.2,10.5, 9.8
"2007/12/05", 9.6,10.1, 9.3
"2007/12/06", 9.5, 9.8, 9.3
"2007/12/07", 9.6,10.8, 8.9
"2007/12/08", 9.4, 9.7, 9.2
"2007/12/09", 9.5,10.2, 9.0
"2007/12/10", 9.3,10.4, 8.2
"2007/12/11", 9.4, 9.9, 8.9
"2007/12/12", 9.2, 9.8, 8.8
"2007/12/13", 9.3, 9.5, 9.2
"2007/12/14", 9.1, 9.5, 8.8
"2007/12/15", 9.0, 9.6, 8.2
"2007/12/16", 8.6, 9.3, 7.7
"2007/12/17", 7.4, 8.0, 6.5
"2007/12/18", 7.9, 8.6, 6.8
"2007/12/19", 8.0, 8.3, 7.8
"2007/12/20", 7.9, 8.5, 7.4
"2007/12/21", 7.9, 8.8, 7.3
"2007/12/22", 7.6, 8.0, 7.4
"2007/12/23", 7.4, 7.7, 7.2
"2007/12/24", 7.7, 8.4, 7.5
"2007/12/25", 7.5, 7.8, 7.0
"2007/12/26", 7.2, 7.4, 6.9
"2007/12/27", 7.2, 7.7, 6.7
"2007/12/28", 7.3, 7.6, 7.1
"2007/12/29", 7.7, 7.9, 7.5
"2007/12/30", 7.9, 8.2, 7.6
"2007/12/31", 7.3, 7.7, 6.9
